Hourly Data Report for October 06, 2017

All times are specified in Local Standard Time (LST). Add 1 hour to adjust for Daylight Saving Time where and when it is observed.

WINNIPEG THE FORKS
MANITOBA

49°53'18.008" N
97°07'46.007" W
230.00 m
5023262
71579
XWN

Download Data

Hourly Data (October 2017)
Hourly Data Report for October 6, 2017
Temp Definition
°C
Dew Point Temp Definition
°C
Rel Hum Definition
%
Wind Dir Definition
10's deg

Wind Spd Definition
km/h
Visibility Definition
km
Stn Press Definition
kPa
Hmdx Definition


Wind Chill Definition


Weather Definition


TIME
00:00 5.7 -0.8 63 20 5   98.95     LegendNANA
01:00 5.2 -1.3 63 21 6   98.93     LegendNANA
02:00 4.8 -1.0 66 20 6   98.90     LegendNANA
03:00 5.2 -0.3 68 21 7   98.84     LegendNANA
04:00 5.3 0.6 71 21 9   98.78     LegendNANA
05:00 4.9 0.4 73 20 6   98.72     LegendNANA
06:00 4.0 0.2 76 21 6   98.71     LegendNANA
07:00 4.4 0.9 78 21 9   98.65     LegendNANA
08:00 5.6 1.4 74 20 6   98.60     LegendNANA
09:00 7.7 2.2 68 20 6   98.54     LegendNANA
10:00 10.6 2.9 59 20 6   98.42     LegendNANA
11:00 14.2 3.5 48 21 8   98.38     LegendNANA
12:00 15.5 2.8 43 21 12   98.26     LegendNANA
13:00 16.5 3.0 40 21 14   98.12     LegendNANA
14:00 17.8 0.8 32 21 13   97.97     LegendNANA
15:00 18.2 1.7 33 21 13   97.84     LegendNANA
16:00 18.4 1.2 31 22 14   97.73     LegendNANA
17:00 17.9 2.2 35 21 13   97.64     LegendNANA
18:00 16.6 3.4 41 21 8   97.59     LegendNANA
19:00 15.1 3.7 47 21 6   97.54     LegendNANA
20:00 13.5 4.0 53 20 6   97.47     LegendNANA
21:00 13.1 4.3 55 19 10   97.39     LegendNANA
22:00 12.6 4.4 57 20 11   97.31     LegendNANA
23:00 11.5 4.3 61 20 9   97.20     LegendNANA

Notes on Data Quality.

Legend

  • E = Estimated
  • M = Missing
  • NA = Not Available
  • ‡ = Partner data that is not subject to review by the National Climate Archives
Date modified: